Starlink 2569

operational
NORAD ID: 48277 Int'l Des: 2021-036 Owner: SPXS Country: US Constellation: starlink
LEOCIRCULARSTARLINK_TYPE

关于 Starlink 2569

正在加载描述...

实时位置

正在加载3D地球...

即将过境

高度历史

Altitude vs Time

uPlot chart will show altitude changes over time

两行轨道根数

1 48277U 21036B 25352.26735086 .00001015 00000-0 87032-4 0 9995
2 48277 53.0556 17.1377 0001212 89.0528 271.0599 15.06392767257023
Epoch: Dec 18, 2025 • Age: 21 hours

当前状态

高度 554.4 km
速度 7.58 km/s
星下点 -23.54°S, 138.47°W
发射日期 Apr 29, 2021
运行时间 4.6 years
类型 internet

技术详情

分类 Payload
质量 260.00 kg
干质量 248.00 kg
总质量 260.00 kg
长度 0.20 m
直径 2.80 m
跨度 9.00 m
形状 Box + pan
制造商 SPXS
平台类型 Starlink
阶段状态 In Orbit
所有者/国家 SPXS/US

大型星座

Loading constellations...